Theta_e
355 364 366 366 365 364 363 360 361 361 360 360 361 361 360 360 360 361 361 363 363 363 360 359 356 354 355 355 355 356 357 357 355 354 353 353 354 354 354 355 353 348 351
357 364 366 365 365 364 363 361 361 361 359 360 360 360 360 360 361 361 362 362 363 361 360 359 356 354 354 353 354 355 355 355 355 353 353 352 352 353 355 353 351 348 349
359 364 364 365 365 364 362 361 361 360 359 359 360 361 360 360 361 362 362 362 362 360 359 357 356 355 353 353 354 354 354 354 354 354 353 345 345 351 354 353 351 351 350
361 362 362 364 364 363 362 361 361 360 359 360 360 361 361 360 360 361 361 361 359 359 358 357 355 354 353 353 353 353 353 353 353 352 348 351 348 352 353 353 352 350 349
359 362 362 364 363 362 361 361 361 360 359 359 361 361 361 360 360 360 360 360 358 356 356 355 354 353 352 353 353 352 352 353 355 354 349 347 347 352 354 354 351 350 350
357 361 363 363 362 361 361 361 360 360 359 359 361 361 361 360 359 358 359 359 358 355 354 354 354 353 353 352 353 354 356 355 355 347 346 347 346 354 357 355 352 351 353
356 361 362 363 362 362 361 361 360 360 359 359 360 361 361 361 359 358 358 358 358 357 355 354 354 355 355 354 355 356 353 354 348 345 343 342 342 351 358 357 356 357 357
356 360 361 363 362 360 361 360 360 359 359 359 359 360 360 360 360 359 357 359 359 358 357 356 356 355 355 356 356 353 353 353 348 343 341 339 347 351 358 357 355 355 357
356 357 359 360 360 361 360 360 359 359 358 358 358 359 359 360 359 359 358 357 358 358 358 357 357 356 355 354 354 352 352 352 344 342 341 338 348 354 358 359 357 355 355
354 356 354 355 358 357 357 360 359 359 358 358 358 358 358 359 359 359 356 357 356 356 357 356 355 355 354 353 352 352 352 352 343 340 338 335 345 355 359 361 359 357 355
350 352 352 352 352 353 357 358 359 359 359 358 358 358 355 350 352 354 354 357 356 356 355 354 353 352 352 352 351 352 352 341 339 337 334 342 347 352 358 361 360 358 357
344 349 352 351 351 351 355 354 353 354 353 352 352 350 347 347 347 352 353 356 356 355 355 354 353 353 352 343 341 346 343 340 338 336 334 344 347 351 354 357 359 358 356
343 348 350 351 351 352 352 351 352 352 350 350 349 346 343 345 345 347 343 348 346 353 347 349 346 345 342 340 338 334 332 334 336 336 337 346 349 353 356 357 358 355 353
341 344 347 349 350 349 351 349 349 348 347 345 346 344 339 335 339 339 341 343 344 345 344 342 340 340 340 339 336 333 330 330 334 335 336 348 349 351 358 360 358 356 354
337 340 343 344 342 347 347 342 344 343 344 342 343 342 338 335 336 337 339 341 342 342 341 340 338 340 339 338 337 335 334 333 334 335 333 345 349 353 357 358 358 357 356
337 337 340 339 339 342 339 338 339 338 339 339 341 341 337 336 336 336 335 340 340 341 340 340 339 339 338 338 338 336 336 335 335 334 334 335 350 350 351 354 349 350 349
337 337 336 338 339 336 335 337 338 339 339 339 341 341 339 336 339 341 340 342 342 342 341 340 339 338 335 336 335 338 338 338 339 339 339 340 342 347 350 351 349 350 350
338 337 340 346 340 339 337 340 341 341 341 340 341 342 342 340 350 347 345 343 348 343 340 339 340 338 338 337 336 338 339 340 340 340 340 340 339 347 343 343 346 350 350
340 340 342 344 343 344 343 347 348 345 344 345 344 344 345 346 351 347 346 346 346 344 342 340 339 340 338 339 341 341 339 339 339 341 340 341 340 340 338 340 344 344 346
340 340 339 341 346 350 352 351 352 351 348 351 348 347 348 350 351 346 346 346 344 341 340 340 339 340 339 338 340 339 337 337 338 337 337 339 340 341 338 337 335 337 342
338 336 338 339 342 344 342 347 348 345 348 347 352 351 352 350 350 347 345 343 343 341 341 341 340 336 334 335 332 331 331 332 331 331 330 330 332 332 331 330 330 330 332
337 336 340 343 340 336 337 344 345 343 343 346 349 350 350 349 349 346 344 344 343 340 339 338 336 334 333 332 327 325 320 323 326 328 327 328 327 328 328 330 330 331 331
336 337 338 341 343 342 347 347 344 342 341 342 342 345 346 348 348 346 343 340 339 338 334 333 332 330 327 328 327 324 318 315 322 323 324 323 323 324 324 326 328 324 326
334 332 337 341 339 338 338 341 342 339 337 340 340 340 341 343 341 340 336 335 333 329 326 326 328 326 324 320 322 325 322 323 315 313 317 319 317 321 320 321 320 320 322
333 332 337 339 332 331 333 332 337 337 331 341 338 334 333 333 334 332 328 325 323 321 318 316 318 319 320 317 315 315 313 312 313 307 305 308 312 313 314 313 314 313 317
338 336 336 336 336 331 335 334 337 336 330 335 333 329 327 326 325 323 321 319 317 315 314 313 314 313 312 311 310 310 308 308 307 306 304 304 303 306 311 309 309 309 311
Wind_Speed
7 8 13 15 16 17 18 19 18 17 18 19 19 19 19 19 18 18 18 17 15 14 14 12 12 13 12 12 13 12 11 12 12 12 12 13 13 12 9 8 8 7 9
14 11 15 16 17 17 18 18 18 17 18 19 19 18 18 17 17 16 15 14 13 14 12 12 12 12 12 11 11 11 11 11 9 9 10 10 9 9 9 11 10 7 7
17 14 14 18 19 19 18 18 18 17 18 19 18 18 17 16 16 16 14 13 13 13 12 11 10 10 10 10 9 9 9 9 7 6 6 4 4 7 8 9 10 9 8
19 13 14 19 20 20 19 18 18 18 18 18 18 17 16 16 15 15 14 13 14 13 12 11 10 9 9 8 7 6 6 6 4 2 1 3 5 9 10 11 11 10 10
17 15 15 19 20 20 20 19 19 19 19 18 18 17 16 15 14 14 13 12 13 13 12 11 10 9 8 7 5 4 4 3 1 2 3 5 5 8 12 11 11 11 11
16 15 18 21 20 20 20 20 19 19 19 19 18 17 16 15 14 13 12 11 11 11 11 11 10 9 8 7 5 2 1 2 4 3 4 5 4 11 15 14 13 12 11
15 14 15 20 20 19 19 19 19 19 18 18 17 16 15 15 13 12 11 11 11 11 10 10 9 7 7 5 4 2 3 6 5 5 5 5 4 7 14 15 13 12 11
18 15 14 18 20 20 19 18 17 18 18 17 17 16 15 14 13 12 10 9 9 9 8 8 7 6 5 3 2 4 6 7 5 4 5 5 6 9 13 13 13 12 12
17 16 11 12 15 18 18 19 18 17 18 17 16 15 14 12 11 10 9 8 7 7 6 6 5 5 4 4 4 6 7 9 6 4 5 4 8 10 14 14 13 12 12
14 14 14 13 11 10 10 16 17 16 15 15 14 14 13 12 10 9 8 7 7 6 5 5 4 4 5 6 7 9 9 11 6 6 5 5 9 11 14 15 15 14 14
12 13 11 13 13 12 8 10 12 16 15 13 11 11 9 4 6 7 7 8 8 8 7 8 7 8 8 9 10 10 11 3 5 4 3 12 14 14 15 18 18 17 14
13 12 13 12 14 12 10 11 6 8 5 5 5 6 4 5 5 7 8 11 11 11 10 9 9 9 8 4 3 8 3 5 4 5 5 14 15 16 17 19 19 13 14
18 12 11 12 13 11 9 7 4 5 4 4 5 5 5 4 4 3 3 3 2 6 3 5 4 3 4 3 4 4 5 5 4 5 8 15 15 16 17 16 15 16 16
18 17 15 12 11 7 8 6 5 5 4 4 5 6 4 2 2 2 2 3 4 3 4 4 2 4 6 6 6 6 6 5 4 4 7 15 14 16 14 14 14 11 11
17 16 16 15 9 9 8 5 5 5 5 5 4 5 4 4 5 4 4 3 4 4 4 4 5 5 5 5 6 6 6 7 8 5 4 14 10 10 11 10 5 9 4
13 15 12 14 13 12 8 8 6 5 5 6 6 7 8 5 5 5 5 5 4 4 3 4 4 4 5 4 5 5 6 6 6 6 4 4 3 2 7 7 6 5 2
12 14 11 9 9 11 11 7 7 8 7 7 7 7 8 8 7 6 5 5 5 4 6 2 4 1 3 3 3 2 3 5 5 6 5 3 4 6 6 3 5 7 10
19 18 13 11 13 11 11 10 8 7 6 6 5 5 7 6 6 6 5 3 4 4 3 3 2 2 4 4 3 4 4 4 6 6 5 5 4 2 2 3 9 13 14
21 20 16 13 15 11 10 7 7 8 7 7 6 6 7 8 6 5 4 3 5 4 3 2 2 2 2 3 4 4 4 5 6 6 7 7 6 4 3 7 13 15 14
21 23 16 7 6 9 8 6 4 5 5 6 7 8 9 7 7 5 4 5 4 3 3 1 1 1 1 3 4 5 4 4 4 4 5 5 5 5 4 4 4 5 11
16 18 17 14 9 6 2 5 6 5 4 2 4 7 8 7 7 7 4 5 3 3 2 1 2 4 3 4 3 4 3 3 4 3 3 4 5 6 6 5 5 5 6
19 16 16 15 10 7 3 3 4 4 3 3 3 4 4 4 5 7 7 5 4 4 6 6 5 3 2 4 1 2 3 5 4 6 5 5 7 5 8 8 6 6 7
15 16 15 15 13 8 9 3 5 2 2 3 3 4 2 5 4 7 8 6 5 4 4 5 5 4 2 2 5 2 4 3 4 3 7 5 7 7 6 7 8 9 9
15 10 12 11 8 6 5 4 6 4 3 1 4 4 3 8 5 9 9 8 8 5 7 5 4 4 3 4 3 4 1 2 3 4 5 5 10 7 6 6 6 7 6
18 18 15 11 6 7 8 8 5 3 2 1 3 11 9 10 10 9 8 9 8 6 5 7 5 6 4 3 3 3 2 2 3 3 3 5 6 7 6 5 6 5 6
15 14 12 12 9 8 6 4 2 15 8 7 6 8 7 6 6 7 9 8 7 6 7 4 4 6 4 4 2 3 1 1 4 3 3 5 5 5 8 5 5 5 5
Wind_Direction
164 158 149 137 131 125 123 121 119 115 112 108 105 105 106 109 112 112 113 112 111 112 113 109 109 108 105 105 106 107 108 108 114 121 124 119 122 125 122 152 154 126 126
138 152 150 141 134 129 126 125 123 121 118 114 110 107 106 107 107 105 105 108 111 113 110 109 111 108 106 104 106 107 103 100 104 112 113 116 130 135 130 128 135 141 138
139 149 150 146 139 135 134 131 128 125 123 118 115 112 111 111 110 107 107 109 113 113 111 109 108 105 103 103 102 97 96 96 97 107 118 144 158 166 162 149 149 154 158
138 149 150 150 143 139 137 136 134 131 128 124 122 120 119 117 116 115 117 119 122 122 120 119 115 109 105 101 99 97 96 93 84 81 162 219 218 192 192 175 170 173 174
140 145 153 149 145 143 144 143 141 138 135 132 130 130 127 125 124 122 125 128 130 131 131 130 127 124 121 119 120 114 89 74 31 323 249 242 230 202 203 199 184 189 190
140 142 151 149 148 148 149 148 147 144 141 138 137 137 134 132 129 127 130 134 135 136 136 136 138 140 140 141 148 153 73 333 328 319 305 291 245 207 200 205 196 196 199
139 143 149 150 148 150 152 151 149 146 144 142 141 142 138 135 135 138 139 141 143 144 146 147 147 146 149 159 180 250 314 332 340 335 332 335 281 222 208 206 207 204 206
137 144 150 152 151 153 155 153 153 150 145 145 146 147 145 144 146 143 143 145 146 143 148 149 144 149 159 183 259 305 315 318 324 308 308 303 281 221 228 219 210 212 212
133 141 145 148 154 157 157 155 156 153 150 149 149 149 149 147 144 144 145 149 147 146 148 155 161 166 195 231 254 267 280 289 291 279 283 284 300 229 229 233 225 219 223
135 138 149 155 152 154 160 159 157 152 146 147 149 152 154 152 149 146 149 149 150 162 173 180 191 200 227 246 258 267 274 281 291 298 305 287 270 249 240 239 236 230 226
141 144 143 154 161 166 151 158 149 149 145 143 144 146 140 138 145 151 161 168 176 183 192 202 207 216 225 239 249 259 270 264 267 263 260 276 276 271 256 241 234 234 232
153 156 156 152 158 159 158 153 135 140 127 129 138 147 150 157 167 172 184 189 192 195 201 211 220 227 236 244 260 268 256 255 253 261 256 263 270 273 266 251 240 239 241
161 159 158 147 151 149 146 150 140 144 137 138 152 159 171 175 187 176 197 208 183 214 212 234 263 278 286 275 269 269 271 274 259 257 263 266 266 270 270 255 236 231 242
166 159 147 147 146 132 144 150 142 144 153 159 172 172 166 162 194 223 209 204 202 220 221 230 232 247 255 251 248 252 249 248 247 251 257 266 267 272 256 240 242 259 286
166 153 155 148 136 137 147 142 152 165 168 173 179 190 164 173 191 195 222 221 209 207 224 222 218 231 251 257 255 252 261 255 258 259 257 261 274 258 253 254 310 298 294
152 152 142 147 143 144 154 156 162 166 182 177 180 186 181 186 198 197 191 215 240 227 218 219 221 239 251 251 255 270 282 280 264 267 278 298 220 244 251 231 175 226 95
134 129 135 130 137 154 161 165 173 179 175 185 195 192 185 183 203 182 175 195 220 215 238 234 226 192 234 216 238 299 321 326 325 330 329 326 305 293 276 229 280 278 244
130 136 142 154 163 167 174 174 176 181 180 189 181 186 191 192 198 166 166 154 118 99 122 156 163 22 13 356 321 311 312 315 316 310 295 291 281 249 308 314 272 267 272
137 141 156 163 169 175 170 164 174 185 180 186 178 187 194 184 187 150 141 95 103 100 85 38 38 69 8 329 321 315 319 316 312 316 317 318 302 269 278 283 283 291 285
148 152 161 142 140 162 146 136 147 160 186 182 189 185 193 189 177 149 111 115 116 109 86 89 86 32 8 321 309 310 299 297 307 327 321 318 324 337 327 320 296 276 278
154 155 166 167 170 153 119 169 164 154 147 114 174 178 176 180 158 138 105 103 101 80 44 21 49 47 20 348 351 322 301 295 342 330 323 338 2 358 351 342 328 322 314
163 171 161 173 165 162 148 218 37 84 91 172 111 125 208 196 148 118 123 113 103 90 65 50 43 19 359 24 17 262 324 331 349 328 342 352 359 1 356 344 332 324 325
155 171 170 170 168 171 186 142 110 59 356 80 56 79 117 127 110 109 98 94 82 84 80 59 51 49 351 315 21 53 352 300 330 321 344 8 5 348 338 335 335 343 341
155 157 164 162 165 195 216 170 127 175 188 72 135 90 44 54 80 90 93 92 84 78 64 58 41 42 42 18 352 34 47 305 312 326 357 352 348 341 328 332 325 322 338
148 162 172 157 141 214 221 183 125 181 178 6 74 95 96 89 71 63 64 75 72 65 60 55 42 50 44 67 28 339 354 309 78 268 314 336 327 331 319 313 311 320 340
147 161 171 173 179 200 237 187 179 158 216 204 154 116 102 95 84 75 79 77 71 69 57 53 51 56 63 65 52 33 50 5 318 335 312 325 305 296 311 306 316 316 323